Location: Asheville, NC
(35.6000°N, 82.5500°W)
Time: 09:25:08

Oscar 11 - Pass Details

Date: 16 March 2018
Orbit: 613 x 626 km, 97.7° (Epoch: 19 March)

Event Time Altitude Azimuth Distance (km) Brightness Sun altitude
Exits shadow 20:57:44 17° 153° (SSE) 1,574 8.8 -16.8°
Maximum altitude 21:00:58 62° 75° (ENE) 693 7.0 -17.5°
Drops below altitude 10° 21:05:12 10° 356° (N) 1,975 9.8 -18.3°
Sets 21:07:24 0° 353° (N) 2,885 10.7 -18.7°
